Temperature
12 12 12 12 12 12 12 12 12 12 13 13 13 13 13 13 13 13 13 14 14 14 14 14 13 13 13 13 14 14 13 13 13 13 13 13 13 13 13 13 13 13 13
12 12 12 12 12 12 12 12 12 12 12 12 13 13 13 13 13 13 13 13 14 14 13 13 13 13 13 13 13 13 13 13 13 13 13 13 13 13 13 13 13 13 13
11 11 11 11 11 11 11 11 11 11 12 12 12 12 12 12 12 12 12 13 13 13 13 13 13 13 13 13 13 13 13 13 13 13 13 13 13 13 13 13 13 13 13
10 10 10 11 11 11 11 11 11 11 11 11 12 12 12 12 12 12 12 12 13 13 13 13 13 13 13 13 13 13 13 13 13 13 13 13 13 13 13 13 13 13 13
10 10 10 10 10 10 10 10 10 10 11 11 11 11 11 11 12 12 12 12 12 12 12 13 13 12 12 12 12 12 12 12 12 12 13 13 12 13 13 13 13 13 13
9 9 9 9 9 9 10 10 10 10 10 10 10 11 11 11 11 11 11 11 11 12 12 12 12 12 12 12 12 12 12 12 12 12 12 12 12 12 12 12 12 12 12
9 9 9 9 9 9 9 9 9 9 9 9 10 10 10 10 10 10 11 11 11 11 11 11 11 11 12 12 12 12 12 12 12 12 12 12 12 12 12 12 12 12 12
8 8 8 8 8 8 8 8 8 8 8 8 8 8 9 10 10 10 10 10 10 10 10 11 11 11 11 11 11 11 11 11 11 12 12 12 12 12 12 12 12 12 12
7 7 7 7 7 7 7 7 7 7 7 7 7 7 8 9 9 9 9 9 10 10 10 10 10 10 10 10 10 11 11 11 11 11 11 11 11 11 11 11 11 12 12
7 7 7 7 7 6 6 6 6 6 6 6 6 6 6 6 7 8 8 9 9 9 9 9 9 9 9 9 9 10 10 10 10 11 11 11 11 11 11 11 11 11 11
6 6 6 6 6 6 6 6 6 6 6 6 5 6 6 5 5 6 7 7 8 8 8 8 8 8 8 8 8 9 9 10 10 10 10 10 10 10 10 11 11 11 11
6 6 6 5 5 5 5 5 5 5 5 5 5 5 5 4 4 4 5 5 6 7 7 7 7 7 7 8 8 8 8 9 9 9 9 10 10 10 10 10 10 11 11
5 5 5 5 5 5 5 5 4 4 4 4 4 4 4 4 4 4 4 4 4 5 5 6 6 6 6 7 7 7 7 8 8 8 9 9 9 9 9 10 10 10 10
5 5 4 4 4 4 4 4 4 4 4 4 3 3 3 3 3 3 3 3 3 4 4 5 5 5 5 6 6 6 7 7 7 8 8 8 8 8 9 9 9 9 9
4 4 4 4 3 3 3 3 3 3 3 3 3 3 3 3 3 3 2 2 2 2 3 4 4 4 4 5 5 5 6 6 6 7 7 7 8 8 8 8 8 8 9
4 4 3 3 3 3 3 3 3 3 3 3 2 2 2 2 2 2 2 2 1 1 1 2 3 3 4 4 4 4 5 5 6 6 6 6 7 7 7 7 8 8 8
3 3 3 3 3 2 2 2 2 2 2 2 2 2 2 2 1 1 1 1 1 0 0 1 2 2 3 3 3 4 4 4 5 5 5 5 6 6 6 6 6 7 7
3 3 3 2 2 2 2 2 2 2 1 1 1 1 1 1 1 1 1 0 0 -0 -0 -0 1 1 2 2 2 3 3 3 3 4 4 5 5 5 5 5 6 6 6
3 2 2 2 2 2 1 1 1 1 1 1 1 0 0 0 -0 -0 -0 -0 -1 -1 -1 -1 -1 -0 1 1 1 2 2 2 2 3 3 4 4 4 4 5 5 5 5
2 2 2 2 1 1 1 1 1 0 0 0 0 -0 -0 -1 -1 -1 -1 -1 -1 -2 -2 -2 -2 -1 -1 -1 -0 -0 1 1 1 2 2 3 3 3 4 4 4 4 5
2 2 2 1 1 1 1 0 0 -0 -0 -0 -0 -1 -1 -1 -1 -2 -2 -2 -2 -3 -3 -3 -3 -3 -2 -2 -2 -2 -1 -1 0 0 1 1 2 2 3 3 3 4 4
2 2 1 1 1 1 0 0 -0 -1 -1 -1 -1 -1 -1 -1 -2 -2 -2 -2 -3 -3 -3 -3 -3 -3 -3 -3 -3 -3 -3 -3 -2 -1 -1 0 0 1 1 2 2 3 3
2 1 1 1 1 0 0 -0 -1 -1 -1 -1 -1 -1 -2 -2 -2 -3 -3 -3 -3 -3 -4 -4 -4 -4 -4 -4 -4 -4 -4 -4 -3 -3 -2 -1 -0 -0 0 1 1 2 2
1 1 1 1 0 0 -0 -0 -1 -1 -1 -1 -2 -2 -2 -3 -3 -3 -3 -3 -4 -4 -4 -4 -4 -4 -4 -4 -4 -4 -4 -4 -3 -3 -3 -3 -2 -1 -0 0 0 1 1
1 1 1 0 0 -0 -0 -1 -1 -2 -2 -2 -2 -3 -3 -3 -4 -4 -4 -4 -4 -4 -4 -4 -4 -4 -4 -4 -5 -5 -5 -5 -5 -4 -4 -4 -3 -2 -1 -1 -0 -0 -0
1 1 0 0 -0 -0 -1 -1 -2 -2 -2 -3 -3 -3 -3 -4 -4 -4 -5 -5 -5 -5 -5 -4 -5 -5 -5 -5 -5 -5 -6 -6 -6 -5 -5 -5 -4 -4 -4 -2 -1 -1 -1
Wind_Speed
4 5 4 4 5 5 6 6 6 7 8 8 9 10 10 11 11 11 10 12 15 16 17 17 17 17 18 18 18 18 17 18 18 17 17 16 15 15 15 14 13 12 11
5 5 5 5 5 6 6 7 7 7 7 7 9 10 11 11 12 12 12 11 15 16 17 18 18 18 18 18 18 19 19 18 19 19 19 18 18 17 17 16 15 15 14
7 6 5 5 6 7 7 7 7 7 7 7 9 10 10 11 11 12 12 11 11 15 17 18 18 18 18 19 19 19 19 19 19 19 20 20 20 19 18 18 17 16 16
8 6 5 5 7 7 6 6 6 7 7 7 8 9 9 9 11 11 11 11 10 10 13 16 17 17 17 18 19 19 19 18 19 19 20 20 21 21 20 19 19 18 18
9 7 5 6 7 6 5 6 6 6 7 8 9 9 9 9 10 10 11 11 10 10 10 12 15 16 16 16 17 18 17 16 17 17 18 19 20 21 21 21 20 20 19
9 7 5 7 7 5 5 6 7 7 7 8 9 9 8 9 8 8 9 9 9 10 10 10 10 12 15 16 17 17 16 16 16 16 17 18 19 20 21 22 21 21 21
9 7 6 6 6 5 6 7 7 8 6 7 7 7 7 7 7 6 6 6 6 7 7 9 8 8 9 13 15 16 16 17 17 17 17 19 19 19 19 20 21 21 21
9 7 7 6 6 5 6 7 7 6 5 5 5 6 6 5 4 5 5 5 6 5 5 6 6 7 7 7 7 10 13 15 17 17 17 18 19 20 20 21 20 20 22
8 8 8 7 6 5 5 6 7 6 6 5 4 4 5 5 6 5 5 4 4 4 4 4 5 5 6 6 7 7 10 13 15 16 17 17 18 19 19 20 21 19 19
7 8 7 7 6 5 6 6 6 6 6 5 5 4 5 6 6 6 5 5 5 6 6 4 5 4 5 6 7 8 9 12 15 17 18 18 17 17 19 20 20 20 18
6 7 7 6 6 5 6 6 6 6 5 5 5 5 5 5 6 7 7 7 6 5 6 6 5 4 5 5 6 8 9 10 14 17 19 19 19 17 17 18 19 19 19
4 6 6 6 6 5 6 6 6 6 5 5 5 4 4 4 5 6 7 9 8 6 6 5 5 5 5 5 6 9 9 10 12 15 16 17 17 17 17 16 16 17 17
4 5 6 6 5 5 6 6 5 5 5 5 5 5 4 5 5 6 7 8 8 7 6 4 4 4 5 6 7 10 10 11 12 15 16 16 15 14 14 16 16 16 17
4 5 5 5 6 6 6 5 5 5 5 5 5 5 5 5 5 5 5 6 7 7 6 6 5 4 5 7 9 11 10 11 12 13 15 15 14 13 13 14 15 15 15
4 5 5 5 5 5 5 5 4 5 5 5 5 5 5 4 4 4 5 5 5 6 6 6 5 5 7 8 10 10 10 11 13 13 13 14 13 13 13 13 14 15 15
4 4 4 5 5 5 5 5 4 5 5 4 4 5 5 4 4 4 4 4 5 6 6 6 7 9 9 9 11 10 11 13 12 12 13 13 13 13 14 14 14 14 15
4 4 4 4 4 5 5 5 4 5 5 5 5 5 5 5 4 4 4 4 5 5 8 8 8 9 11 11 10 10 10 10 10 12 13 14 14 13 13 13 13 14 15
4 4 4 5 4 4 4 4 5 5 5 5 5 5 5 5 5 5 5 5 5 6 7 10 9 9 11 11 11 11 10 10 10 12 14 15 15 14 14 14 13 13 14
4 4 4 4 4 4 4 4 4 4 4 4 5 5 6 6 6 5 6 6 6 6 7 8 9 9 9 9 11 10 11 9 10 12 14 14 14 14 15 15 14 13 13
4 4 4 4 4 4 4 4 4 4 4 5 5 5 6 6 7 7 6 7 7 8 8 8 8 9 8 9 9 9 10 10 10 10 11 12 13 14 15 15 14 13 13
5 5 5 5 4 4 4 5 5 5 5 5 5 5 5 6 7 7 7 7 8 7 7 8 8 8 8 8 8 9 10 11 11 8 9 9 10 9 10 12 12 13 14
5 5 5 5 5 4 5 7 6 5 5 5 5 5 6 6 7 8 9 10 10 9 9 8 8 9 10 10 9 9 10 10 9 7 10 11 10 10 9 9 11 12 14
6 6 5 5 6 5 6 7 7 6 5 5 5 6 5 5 7 7 8 9 9 10 10 10 10 11 11 10 11 11 11 11 12 11 11 12 10 10 9 10 14 14 14
6 6 6 6 6 5 6 6 6 6 5 5 5 6 7 7 6 8 8 8 9 8 9 8 9 10 10 11 11 11 12 13 12 9 9 9 10 10 10 10 12 14 14
6 6 5 6 6 6 6 6 6 5 5 6 6 6 7 7 8 10 9 9 10 9 8 10 12 12 14 14 12 9 9 9 10 9 7 7 8 10 10 9 9 11 13
6 5 5 6 6 6 6 6 6 4 5 5 5 5 6 8 10 11 9 9 10 10 10 10 10 10 10 10 10 8 8 8 9 7 5 6 8 8 7 7 7 8 10
Wind_Direction
337 331 326 326 322 321 311 301 292 289 280 274 267 262 257 253 250 246 242 222 226 235 241 243 243 242 241 238 237 236 234 232 233 232 229 229 229 229 228 227 227 228 230
342 332 327 327 324 321 314 303 297 291 285 277 272 267 264 261 257 253 249 236 227 232 239 244 245 246 245 243 240 238 237 234 233 232 231 229 229 229 230 229 229 229 230
347 339 330 327 327 321 314 307 302 295 288 282 276 271 267 263 261 257 252 249 240 231 233 241 246 248 248 247 245 242 239 237 236 234 232 231 229 229 229 230 230 231 232
353 345 338 333 330 323 319 312 306 298 291 287 283 277 270 265 262 260 255 250 248 243 233 234 241 246 250 251 249 246 243 240 238 237 236 233 231 230 229 230 231 232 234
357 351 343 338 334 329 324 317 309 303 296 293 288 280 273 267 263 260 255 251 247 248 248 236 233 241 247 250 251 251 248 244 241 239 238 238 235 233 232 232 232 233 234
358 352 346 343 341 333 329 324 315 307 301 302 294 287 279 271 265 259 259 256 251 248 249 251 243 240 240 247 250 251 252 250 247 244 240 238 238 238 237 236 235 235 235
0 359 352 347 345 336 331 327 319 312 312 316 300 294 283 271 265 268 266 262 261 261 263 260 257 253 246 242 248 250 252 252 248 246 244 241 239 238 238 239 238 238 238
2 1 358 351 349 340 340 338 333 319 314 323 308 299 294 280 269 273 267 266 270 271 274 277 270 263 259 255 254 252 258 257 254 249 248 247 243 241 240 239 240 240 240
3 2 358 353 350 346 341 339 336 328 317 315 313 300 297 292 308 278 279 282 292 289 281 280 288 292 282 272 267 263 261 262 261 257 254 252 251 248 246 244 242 241 240
2 1 357 354 350 346 342 337 337 326 319 314 307 301 293 297 290 291 283 287 298 295 290 286 283 289 294 291 284 289 275 265 265 264 260 256 255 254 252 249 247 243 241
360 0 356 352 347 343 340 337 334 330 322 314 312 308 296 294 286 280 286 297 298 292 296 290 283 289 294 292 295 307 303 284 274 270 267 263 259 258 259 255 250 247 244
345 354 350 348 344 340 336 332 329 327 324 319 315 312 305 299 301 289 282 294 295 295 296 290 286 293 303 299 302 316 308 296 288 280 273 270 268 264 261 261 257 252 249
332 339 341 341 340 336 332 329 327 326 324 320 314 308 302 298 296 294 290 293 294 296 291 285 287 294 305 300 304 314 299 298 296 291 282 275 274 273 270 267 264 259 253
315 324 329 332 333 332 330 328 323 324 319 314 311 310 303 303 302 300 298 298 296 290 285 285 294 300 310 311 318 317 305 308 304 299 295 284 278 276 272 270 268 266 261
306 316 321 324 326 328 328 326 322 323 320 320 318 317 312 310 307 303 300 299 295 294 293 294 304 315 321 316 316 311 307 310 304 298 297 295 284 278 274 269 265 265 265
299 305 313 316 320 323 325 322 317 319 320 320 319 317 313 308 306 308 305 306 298 286 283 301 312 318 320 312 313 307 303 304 299 295 295 293 289 280 275 270 263 261 262
288 294 300 304 310 317 322 320 318 318 315 317 324 321 317 315 314 313 312 307 299 291 285 294 304 312 318 321 318 312 306 300 295 295 294 293 287 284 279 271 266 262 259
277 283 289 292 298 304 310 313 312 313 314 317 322 323 322 320 314 312 311 306 302 298 290 295 301 310 313 319 319 318 314 306 299 298 295 294 288 282 279 273 269 267 263
269 274 280 284 290 296 300 302 306 306 309 312 316 315 316 315 312 314 311 308 306 303 297 294 298 305 307 315 317 317 317 315 309 302 296 292 289 286 281 277 272 268 267
262 268 271 277 284 288 289 292 296 299 304 308 310 309 311 311 311 313 310 310 309 305 303 299 299 303 307 315 316 318 318 318 315 313 308 302 295 289 282 279 272 267 266
256 260 264 270 276 280 286 292 289 291 296 301 303 304 305 306 308 308 308 310 309 303 303 300 299 303 308 316 319 319 314 314 310 313 316 310 307 298 290 281 274 265 263
248 251 256 264 271 274 286 287 288 286 290 293 299 302 304 297 301 300 301 304 304 300 301 298 298 300 304 309 312 311 312 312 308 319 315 305 302 296 294 289 288 286 272
242 247 253 259 265 274 282 281 281 281 284 290 298 303 304 304 303 302 302 301 298 296 293 293 293 295 301 307 307 305 304 301 296 302 305 296 298 294 296 292 292 288 283
240 247 253 257 263 271 280 280 282 277 281 288 293 296 299 303 307 310 306 302 299 297 298 294 293 296 299 302 300 297 296 296 292 291 294 290 299 301 306 299 294 289 286
238 244 251 256 262 270 274 276 280 281 280 286 289 291 296 298 306 310 306 304 304 305 304 301 299 298 299 301 303 300 299 299 298 299 303 292 300 306 302 296 296 299 295
235 241 247 251 256 265 271 272 274 274 280 286 288 287 288 296 308 312 308 305 305 309 312 309 304 302 301 301 302 294 293 293 294 296 306 306 303 313 305 296 302 306 302
Height
1521 1520 1519 1518 1517 1516 1515 1514 1514 1514 1513 1513 1513 1513 1513 1513 1513 1513 1512 1513 1514 1514 1515 1516 1516 1517 1517 1518 1518 1518 1519 1520 1520 1521 1521 1522 1522 1523 1524 1524 1525 1525 1526
1518 1517 1516 1515 1514 1513 1512 1512 1511 1510 1509 1509 1508 1508 1508 1508 1508 1508 1508 1508 1508 1509 1510 1511 1512 1512 1513 1513 1514 1514 1515 1515 1516 1517 1517 1518 1519 1520 1520 1521 1522 1522 1523
1516 1515 1514 1512 1511 1510 1509 1509 1508 1507 1506 1505 1504 1504 1503 1503 1503 1503 1503 1503 1503 1504 1505 1505 1506 1507 1508 1509 1509 1510 1510 1511 1512 1513 1513 1514 1515 1516 1517 1517 1518 1519 1520
1514 1512 1511 1510 1509 1508 1506 1505 1504 1503 1502 1501 1500 1499 1499 1498 1497 1497 1497 1498 1498 1498 1499 1500 1501 1502 1502 1503 1504 1505 1506 1506 1507 1508 1509 1509 1510 1511 1512 1513 1514 1515 1516
1511 1510 1508 1507 1506 1504 1503 1502 1501 1500 1498 1497 1496 1494 1494 1493 1493 1492 1492 1492 1492 1493 1493 1494 1495 1496 1497 1498 1499 1499 1500 1501 1501 1502 1503 1504 1505 1506 1507 1508 1509 1510 1511
1509 1508 1506 1504 1503 1501 1500 1499 1497 1496 1495 1493 1492 1490 1489 1488 1487 1487 1487 1487 1487 1487 1487 1488 1489 1489 1490 1492 1493 1494 1494 1495 1496 1497 1498 1499 1500 1501 1502 1503 1504 1505 1506
1507 1505 1504 1502 1500 1499 1497 1496 1494 1493 1491 1490 1488 1486 1485 1484 1483 1482 1481 1482 1482 1482 1482 1482 1483 1483 1484 1485 1486 1488 1488 1489 1490 1491 1492 1493 1494 1495 1496 1497 1498 1499 1500
1505 1504 1502 1500 1498 1496 1494 1493 1491 1490 1488 1487 1486 1484 1482 1481 1479 1478 1478 1477 1477 1477 1477 1477 1477 1477 1477 1478 1479 1481 1482 1483 1484 1485 1486 1487 1488 1489 1490 1491 1492 1493 1494
1504 1502 1500 1498 1496 1494 1492 1490 1489 1487 1486 1485 1484 1484 1482 1479 1476 1475 1474 1473 1473 1472 1472 1471 1471 1471 1471 1472 1473 1474 1475 1476 1477 1478 1479 1480 1481 1482 1483 1484 1486 1487 1488
1502 1500 1498 1496 1494 1492 1490 1488 1486 1485 1483 1482 1481 1480 1480 1478 1476 1472 1471 1470 1469 1468 1468 1467 1466 1466 1466 1466 1466 1467 1468 1469 1470 1471 1472 1473 1474 1475 1476 1477 1478 1480 1481
1500 1498 1496 1494 1492 1490 1488 1486 1484 1482 1481 1479 1478 1477 1476 1475 1473 1471 1468 1466 1465 1464 1463 1462 1462 1461 1461 1461 1461 1461 1461 1462 1463 1463 1464 1465 1467 1468 1469 1470 1471 1473 1474
1498 1496 1493 1491 1489 1487 1485 1483 1481 1480 1478 1476 1475 1474 1473 1472 1470 1468 1466 1463 1461 1460 1459 1458 1457 1457 1456 1455 1455 1454 1454 1455 1455 1456 1457 1457 1458 1460 1461 1462 1463 1465 1466
1495 1493 1491 1489 1487 1485 1483 1481 1479 1477 1475 1474 1472 1471 1470 1468 1467 1465 1463 1460 1458 1456 1455 1453 1453 1452 1451 1450 1449 1449 1449 1448 1448 1448 1449 1449 1450 1451 1453 1454 1455 1457 1459
1493 1490 1488 1486 1484 1482 1480 1478 1476 1474 1473 1471 1470 1468 1467 1465 1464 1462 1461 1458 1455 1453 1452 1451 1449 1448 1447 1445 1444 1443 1442 1442 1441 1441 1441 1441 1442 1443 1445 1446 1447 1449 1450
1490 1488 1486 1483 1481 1479 1477 1475 1473 1472 1470 1468 1466 1465 1463 1462 1461 1459 1458 1456 1455 1451 1449 1447 1446 1444 1442 1440 1439 1437 1436 1435 1435 1435 1435 1434 1434 1435 1437 1438 1439 1440 1442
1487 1485 1483 1481 1479 1477 1475 1473 1471 1469 1467 1465 1464 1462 1460 1459 1457 1456 1454 1453 1451 1450 1447 1444 1442 1439 1437 1435 1434 1432 1430 1429 1429 1428 1428 1427 1427 1428 1429 1430 1431 1432 1434
1484 1482 1480 1478 1476 1474 1472 1470 1468 1466 1465 1463 1461 1459 1458 1456 1454 1453 1451 1449 1448 1446 1443 1440 1438 1435 1433 1431 1428 1426 1425 1424 1423 1422 1421 1420 1420 1420 1421 1421 1422 1424 1425
1481 1479 1477 1475 1473 1472 1470 1468 1466 1464 1462 1460 1458 1456 1455 1453 1451 1450 1448 1446 1444 1442 1440 1436 1433 1431 1429 1426 1424 1421 1419 1418 1416 1415 1414 1414 1413 1413 1413 1413 1414 1415 1417
1478 1476 1474 1473 1471 1468 1467 1465 1463 1461 1459 1457 1455 1454 1452 1450 1449 1447 1445 1443 1441 1438 1436 1433 1429 1427 1425 1422 1419 1417 1414 1412 1410 1409 1408 1407 1406 1406 1405 1405 1406 1406 1408
1474 1473 1471 1469 1467 1465 1463 1462 1460 1458 1456 1455 1453 1451 1449 1447 1445 1444 1441 1439 1437 1435 1432 1429 1426 1423 1421 1418 1416 1412 1409 1407 1405 1403 1401 1400 1399 1398 1398 1398 1398 1398 1399
1470 1469 1467 1466 1464 1462 1460 1458 1457 1455 1453 1451 1450 1448 1446 1444 1442 1440 1438 1436 1433 1431 1429 1426 1423 1420 1417 1415 1412 1409 1406 1402 1399 1398 1395 1394 1392 1391 1390 1390 1390 1389 1390
1466 1465 1463 1462 1460 1458 1457 1455 1454 1452 1450 1448 1446 1444 1442 1440 1438 1436 1434 1432 1430 1428 1425 1423 1420 1417 1414 1412 1409 1406 1403 1399 1395 1394 1391 1388 1387 1385 1383 1383 1382 1381 1382
1462 1461 1459 1458 1456 1455 1453 1451 1450 1448 1446 1444 1442 1441 1439 1436 1434 1432 1430 1427 1426 1424 1422 1420 1416 1414 1411 1408 1405 1402 1400 1396 1393 1390 1387 1382 1381 1379 1377 1376 1375 1374 1374
1457 1456 1455 1453 1452 1451 1449 1448 1446 1444 1443 1441 1439 1437 1435 1433 1430 1428 1425 1423 1421 1419 1417 1414 1412 1409 1407 1404 1402 1399 1395 1391 1388 1385 1383 1379 1375 1373 1371 1369 1368 1367 1367
1453 1451 1450 1449 1448 1446 1445 1444 1442 1440 1439 1437 1435 1433 1431 1429 1427 1424 1422 1419 1417 1414 1412 1410 1407 1404 1402 1399 1397 1394 1391 1388 1383 1380 1379 1376 1371 1367 1364 1362 1361 1360 1360
1448 1447 1446 1444 1443 1442 1441 1439 1438 1436 1435 1433 1431 1429 1427 1425 1423 1420 1418 1415 1412 1410 1407 1404 1402 1399 1397 1394 1392 1390 1387 1384 1380 1376 1374 1372 1368 1365 1359 1355 1355 1354 1353